Weather in Sevsk

Russia / Bryansk Oblast     52°09′21″N   34°29′42″E
temp.,
°C
wind,
m/s
gust,
m/s
humid.,
%
clouds,
%
prec.,
mm/h
press.,
hPa
HPBL,
m
14 april, wed
wed1400:00+10s488662 0.0 1019265
03:00+8sse35935 0.0 1019119
06:00+7sse369417 0.0 1019124
09:00+11sse347850 0.0 1019401
12:00+14sse3459100 0.0 10181201
15:00+14sse335999 0.0 1017937
18:00+14sse2463100 0.0 1016355
21:00+12ne1175100 0.3 101610
15 april, thu
thu1500:00+11ese2282100 0.2 101538
03:00+10n2389100 0.8 101457
06:00+10e2488100 0.4 101484
09:00+12se356997 0.6 1014398
12:00+15se4556100 1.1 10131186
15:00+16se445461 2.8 10121347
18:00+14s1270100 2.3 1011126
21:00+11e348545 3.6 1012131
16 april, fri
fri1600:00+10se3687100 0.0 1012217
03:00+8se3691100 0.0 1013141
06:00+9ese379090 0.1 1013303
09:00+11ese357512 0.1 1014543
12:00+14se685750 0.3 10141627
15:00+14sse895620 0.8 10151567
18:00+12s58615 0.0 10161053
21:00+8sse227919 0.0 101827
17 april, sat
sat1700:00+7se2285100 0.0 101924
03:00+6ese118837 0.0 102010
06:00+6ene1183100 0.0 102010
09:00+10nnw2371100 0.0 1020328
12:00+11nne3787100 0.9 1019574
15:00+11ese3785100 1.8 1019765
18:00+9sw1295100 4.4 1020111
21:00+10ene7158793 8.2 1020757
18 april, sun
sun1800:00+9ene51086100 0.3 1021666
03:00+8e599394 0.4 1021472
06:00+7ese4794100 0.0 1022560
09:00+8se568498 0.1 1024671
12:00+11ese4663100 0.0 10241410
15:00+9ene357426 0.1 1025643
18:00+10ene477459 0.4 1024393
21:00+8ene598674 0.5 1025490